Home   Weather   Ramsey   Past weeks

Flag for Isle of Man Past Weather in Ramsey, Isle of Man — Yesterday and Last 2 Weeks

Now
54 °F

Mostly cloudy.


Feels Like: 49 °F
Forecast: 51 / 54 °F
Wind: 16 mph from Southwest

Location: Isle Of Man / Ronaldsway Airport

Current Time: Dec 8, 2016 at 12:22:13 am

Latest Report: Dec 7, 2016 at 11:50 pm


Visibility: 4 mi

Pressure: 30.07 "Hg

Humidity: 94%

Dew Point: 52 °F

Location of RamseyLocation

Past Weather in Ramsey — Graph

°F

Ramsey Temperature Yesterday

Maximum temperature yesterday: 55 °F (at 10:50 am)
Minimum temperature yesterday: 54 °F (at 12:50 am)
Average temperature yesterday: 54 °F

High & Low Weather Summary for the Past Weeks

 TemperatureHumidityPressure
High55 °F (Dec 7, 10:50 am)100% (Nov 25, 8:50 pm)30.54 "Hg (Nov 25, 8:50 pm)
Low30 °F (Nov 26, 8:20 am)54% (Nov 29, 11:20 am)29.92 "Hg (Nov 22, 10:20 pm)
Average45 °F81%30.30 "Hg
* Reported Nov 22 10:20 pm — Dec 7 10:50 pm, Ramsey, Weather by CustomWeather, © 2016

Note: Actual official high and low records may vary slightly from our data, if they occured in-between our weather recording intervals... More about our weather records

Advertising

Ramsey Weather History for the Previous 24 Hours

Scroll right to see more
 ConditionsComfort  
Time TempWeatherWind HumidityBarometerVisibility
10:50 pm
Wed, Dec 7
54 °FFog.21 mph100%30.07 "Hg2 mi
9:50 pm54 °FFog.17 mph100%30.07 "Hg3 mi
9:20 pm54 °FFog.17 mph100%30.07 "Hg3 mi
8:50 pm54 °FFog.18 mph100%30.04 "Hg3 mi
8:20 pm54 °FFog.20 mph100%30.04 "Hg3 mi
7:50 pm54 °FFog.20 mph100%30.04 "Hg2 mi
7:20 pm54 °FFog.22 mph100%30.04 "Hg3 mi
6:50 pm54 °FLow clouds.23 mph100%30.01 "Hg4 mi
6:20 pm54 °FMostly cloudy.23 mph100%30.01 "Hg4 mi
5:50 pm54 °FMostly cloudy.23 mph100%30.01 "Hg4 mi
5:20 pm54 °FLow clouds.24 mph100%30.01 "Hg5 mi
4:50 pm55 °FLow clouds.26 mph94%29.98 "Hg4 mi
4:20 pm55 °FLow clouds.23 mph94%29.98 "Hg4 mi
3:50 pm55 °FLow clouds.24 mph94%29.98 "Hg4 mi
3:20 pm55 °FLow clouds.28 mph94%29.98 "Hg4 mi
2:20 pm55 °FLight rain. Fog.28 mph94%29.95 "Hg3 mi
1:50 pm55 °FLow clouds.28 mph94%29.98 "Hg4 mi
1:20 pm55 °FLight rain. Low clouds.24 mph94%29.98 "Hg4 mi
12:50 pm55 °FLow clouds.26 mph94%29.98 "Hg4 mi
12:20 pm55 °FLow clouds.24 mph94%29.98 "Hg4 mi
11:50 am55 °FLow clouds.23 mph94%29.98 "Hg4 mi
11:20 am55 °FLow clouds.22 mph94%29.98 "Hg4 mi
10:50 am55 °FLow clouds.23 mph94%30.01 "HgN/A
10:20 am54 °FFog.21 mph100%30.01 "Hg3 mi
9:50 am54 °FFog.21 mph100%30.01 "Hg2 mi
9:20 am54 °FDrizzle. Fog.24 mph100%30.01 "Hg2 mi
8:50 am54 °FFog.23 mph100%30.01 "Hg2 mi
8:20 am54 °FLow clouds.25 mph94%30.01 "Hg4 mi
7:50 am54 °FLow clouds.28 mph94%29.98 "Hg4 mi
7:20 am54 °FOvercast.23 mph94%30.01 "Hg4 mi
6:50 am54 °FLow clouds.24 mph94%30.01 "Hg4 mi
6:20 am54 °FDrizzle. Low clouds.23 mph94%30.01 "Hg4 mi
5:50 am54 °FLow clouds.22 mph94%30.04 "Hg4 mi
4:50 am54 °FLow clouds.28 mph94%30.04 "Hg4 mi
3:50 am54 °FLow clouds.20 mph94%30.04 "Hg5 mi
2:50 am54 °FLow clouds.24 mph94%30.07 "Hg4 mi
12:50 am54 °FMostly cloudy.28 mph88%30.07 "Hg5 mi
Weather by CustomWeather, © 2016

See weather overviewHow to use our weather pages